Regional Weather Roundup
Issued by NWS Mobile, AL

Home | Current Version | Previous Version | Text Only | Print | Product List | Glossary On
Versions: 1 2 3 4 5 6 7 8 9 10 11 12 13 14 15 16 17 18 19 20 21 22 23 24 25 26 27 28 29 30 31 32 33 34 35 36 37 38 39 40 41 42 43 44 45 46 47 48 49 50
000
ASUS44 KMOB 130712
RWRMOB
REGIONAL WEATHER ROUNDUP
NATIONAL WEATHER SERVICE MOBILE AL
100 AM CST WED DEC 13 2017

NOTE: "FAIR" INDICATES FEW OR NO CLOUDS BELOW 12,000 FEET WITH NO
      SIGNIFICANT WEATHER AND/OR OBSTRUCTIONS TO VISIBILITY.

  * THESE STATIONS ARE PART OF THE UNIVERSITY OF SOUTH ALABAMA
    MESONET AND ARE NOT UNDER NWS OR FAA QUALITY CONTROL.

ALZ061>064-130800-
COASTAL ALABAMA

CITY           SKY/WX    TMP DP  RH WIND       PRES   REMARKS
MOBILE REG APT PTCLDY    40  31  70 NW6       30.15S
BROOKLEY FIELD CLEAR     41  34  76 NW8       30.16S
USA CAMPUS*    NOT AVBL
DOG RIVER*     NOT AVBL


CITY           SKY/WX    TMP DP  RH WIND       PRES   REMARKS
GULF SHORES    CLEAR     41  34  74 NW5       30.13F

$$

ALZ051>060-130800-
INTERIOR SOUTHWEST AND SOUTH CENTRAL ALABAMA

CITY           SKY/WX    TMP DP  RH WIND       PRES   REMARKS
GREENVILLE     PTCLDY    40  26  57 NW9       30.09S
EVERGREEN      PTCLDY    38  31  76 CALM      30.12S
ATMORE*          N/A    N/A N/A N/A NW7         N/A
ANDALUSIA/OPP  PTCLDY    41  30  65 W5        30.09S
ANDALUSIA*       N/A     39  32  75 NW6       30.08S
FLORALA APT    PTCLDY    38  32  79 VRB3      30.12R
FLORALA*         N/A     39  34  81 SW3       30.80S

$$

FLZ001>006-130800-
WESTERN FLORIDA PANHANDLE

CITY           SKY/WX    TMP DP  RH WIND       PRES   REMARKS
PENSACOLA      CLEAR     44  34  67 NW9       30.12S
NAS PENSACOLA  CLEAR     43  34  70 NW6       30.12S
MILTON         PTCLDY    42  33  70 NW6       30.12R
WHTNG S FIELD  PTCLDY    43  34  70 NW6       30.12R


CITY           SKY/WX    TMP DP  RH WIND       PRES   REMARKS
JAY*             N/A     39  34  81 NW2       30.13R
CRESTVIEW      PTCLDY    40  33  76 N6        30.11F
VALPARAISO     NOT AVBL
DESTIN         CLEAR     48  34  58 NW12      30.11R

$$

MSZ076-079-130800-
INTERIOR SOUTHEAST MISSISSIPPI

CITY           SKY/WX    TMP DP  RH WIND       PRES   REMARKS
LEAKESVILLE*     N/A     37  30  75 CALM      30.15F
AGRICOLA*        N/A     39  32  75 CALM      30.13F

$$

MARINE OBSERVATIONS

STATION/POSITION TIME  TEMP    WIND        PRES    WAVE
                       AIR SEA DIR/SP/G            HT/PER
                 (UTC) (F)     (DEG/KT/KT) (MB)    (FT/S)
PASCAGOULA       0648   42     340/  7/  9 1020.8F
PETIT BOIS ISLND 0648   47     350/ 16/ 20 1021.5F
KATRINA CUT      0630   47     360/ 13     1021.3R
CEDAR POINT      0630   45     350/  8     1020.3S
E DAUPHIN ISLAND 0600   48     340/ 13/ 15 1020.6R
MIDDLE BAY LIGHT 0630   47     360/ 16     1020.3F
USCG MOBILE BAY  0648   43 56  330/  4/  7 1020.9S
STATE DOCKS      0648   43 55              1020.7S
MEAHER PARK      0630   43     340/  3     1021.0S
WEEKS BAY        0545   46                 1020.0S
FORT MORGAN      0648   49      10/ 17/ 19   N/A
12 S ORANGE BCH  NOT AVBL
PENSACOLA BAY    0648   45 57              1020.2S
64 S DAUPHIN ISL 0650   59 73  340/ 16/ 23 1020.4S   4/ 5
67 S FORT MORGAN 0630   59                 1019.6F

$$

SELECTED LOCATIONS ACROSS THE REGION

CITY           SKY/WX    TMP DP  RH WIND       PRES   REMARKS
NEW ORLEANS    CLEAR     43  39  86 N3        30.17S
GULFPORT       PTCLDY    36  33  89 NW3       30.15F
PASCAGOULA AP  PTCLDY    36  29  75 N3        30.15F
PASCAGOULA*      N/A     43  32  65 NW7         N/A
HATTIESBURG    CLEAR     32  32 100 CALM      30.16F
LAUREL         CLEAR     34  27  75 N7        30.16F WCI  28
MERIDIAN       CLEAR     32  29  88 CALM      30.16F
JACKSON        CLOUDY    33  27  78 CALM      30.14F
MONTGOMERY     PTCLDY    39  21  48 NW13      30.12R
TROY           PTCLDY    37  27  67 NW8       30.09S
ASHFORD*         N/A     39  32  75 NW6       30.08S
DOTHAN         CLEAR     40  32  73 MISG      30.09F
PANAMA CITY    CLEAR     38  32  79 NW7       30.07F

$$




USA.gov is the U.S. government's official web portal to all federal, state and local government web resources and services.